Cut Bank, MT

2:37 PM MST on November 12, 2019 (GMT -0700)
Cut Bank Municipal

Weather History for KCTB - September, 2019

Change the Weather History Date:

Sunday, September 29, 2019

  Actual Average Record
Temperature  
Mean Temperature 28 °F 49 °F  
Max Temperature 28 °F 63 °F 91 °F (1967)
Min Temperature 26 °F 36 °F 18 °F (1929)
Degree Days  
Heating Degree Days 38 16  
Month to date heating degree days 304 329  
Since 1 July heating degree days 477 523  
Cooling Degree Days 0 0  
Month to date cooling degree days 2 6  
Year to date cooling degree days 106 159  
Moisture  
Dew Point 25 °F    
Average Humidity 90    
Maximum Humidity 93    
Minimum Humidity 86    
Precipitation  
Precipitation 0.09 in 0.03 in 0.53 in (1971)
Month to date precipitation 1.36 1.19  
Year to date precipitation 10.19 9.85  
Snow  
Snow - - - ()
Snow Depth 9.00 in    
Sea Level Pressure  
Sea Level Pressure 30.02 in    
Wind  
Wind Speed 24 mph ()    
Max Wind Speed 33 mph    
Max Gust Speed 40 mph    
Visibility 1.1 miles    
Events Fog , Snow    
T = Trace of Precipitation, MM = Missing Value Source: Averaged Metar Reports

Daily Weather History Graph

Daily Weather History Graph

Search for Another Location

Airport or City:

Astronomy

Sep. 29, 2019 Rise Set
Actual Time 7:25 AM MDT 7:12 PM MDT
Civil Twilight 6:54 AM MDT 7:44 PM MDT
Nautical Twilight 6:18 AM MDT 8:20 PM MDT
Astronomical Twilight 5:40 AM MDT 8:57 PM MDT
Moon 8:22 AM MDT (9/29) 8:11 PM MDT (9/29)
Length of Visible Light 12h 49m
Length of Day
11h 47m
New Moon, 1% of the Moon is Illuminated
Sep 29
New Moon
Oct 5
First Quarter
Oct 13
Full
Oct 21
Last Quarter
Oct 27
New

Hourly Weather History & Observations

Time (MDT) Temp. Windchill Dew Point Humidity Pressure Visibility Wind Dir Wind Speed Gust Speed Precip Events Conditions
12:56 AM 26.1 °F 11.0 °F 23.0 °F 88% 30.18 in 1.0 mi North 24.2 mph - 0.01 in Snow Light Snow
1:34 AM 26.1 °F 10.7 °F 23.0 °F 88% 30.04 in 1.2 mi North 25.3 mph - 0.00 in Snow Light Snow
1:56 AM 26.1 °F 10.4 °F 23.0 °F 88% 30.14 in 1.2 mi North 26.5 mph 34.5 mph 0.00 in Snow Light Snow
2:56 AM 26.1 °F 10.4 °F 23.0 °F 88% 30.13 in 1.2 mi North 26.5 mph - 0.00 in Snow Light Snow
3:09 AM 26.1 °F 9.8 °F 23.0 °F 88% 30.02 in 1.5 mi North 28.8 mph - 0.00 in Snow Light Snow
3:56 AM 26.1 °F 10.4 °F 23.0 °F 88% 30.12 in 1.5 mi North 26.5 mph - 0.00 in Snow Light Snow
4:12 AM 26.1 °F 9.8 °F 23.0 °F 88% 30.00 in 0.8 mi North 28.8 mph 35.7 mph 0.01 in Snow Light Snow
4:22 AM 26.1 °F 10.1 °F 23.0 °F 88% 30.00 in 1.0 mi North 27.6 mph - 0.01 in Snow Light Snow
4:56 AM 26.1 °F 10.1 °F 23.0 °F 88% 30.11 in 1.0 mi North 27.6 mph - 0.01 in Snow Light Snow
5:51 AM 26.6 °F 10.6 °F 24.8 °F 93% 29.98 in 0.8 mi North 28.8 mph - 0.00 in Snow Light Snow
5:56 AM 26.1 °F 10.1 °F 24.1 °F 92% 30.10 in 0.5 mi North 27.6 mph 36.8 mph 0.00 in Fog , Snow Snow
6:56 AM 26.1 °F 9.6 °F 24.1 °F 92% 30.09 in 0.8 mi North 29.9 mph - 0.02 in   Mist
7:54 AM 26.6 °F 10.3 °F 24.8 °F 93% 29.96 in 0.5 mi North 29.9 mph - N/A Fog Light Freezing Fog
7:56 AM 26.1 °F 9.8 °F 24.1 °F 92% 30.09 in 0.5 mi North 28.8 mph - N/A Fog Light Freezing Fog
8:05 AM 26.1 °F 9.6 °F 24.1 °F 92% 29.97 in 0.5 mi North 29.9 mph - N/A Fog Light Freezing Fog
8:32 AM 27.0 °F 11.3 °F 24.1 °F 89% 29.97 in 0.5 mi North 27.6 mph - N/A Fog Light Freezing Fog
8:56 AM 27.0 °F 10.8 °F 24.1 °F 89% 30.07 in 0.5 mi North 29.9 mph 36.8 mph N/A Fog Light Freezing Fog
9:05 AM 27.0 °F 11.3 °F 24.1 °F 89% 29.96 in 0.5 mi North 27.6 mph 36.8 mph N/A Fog Light Freezing Fog
9:41 AM 27.0 °F 10.5 °F 24.1 °F 89% 29.96 in 0.5 mi North 31.1 mph 36.8 mph N/A Fog Light Freezing Fog
9:56 AM 27.0 °F 10.8 °F 24.1 °F 89% 30.08 in 0.5 mi North 29.9 mph - N/A Fog Light Freezing Fog
10:27 AM 27.0 °F 11.3 °F 24.1 °F 89% 29.96 in 0.2 mi North 27.6 mph 36.8 mph 0.00 in Fog , Snow Heavy Snow
10:40 AM 27.0 °F 10.5 °F 24.1 °F 89% 29.95 in 0.5 mi North 31.1 mph - 0.01 in Fog , Snow Snow
10:47 AM 27.0 °F 11.0 °F 24.1 °F 89% 29.96 in 0.2 mi North 28.8 mph - 0.01 in Fog , Snow Heavy Snow
10:56 AM 27.0 °F 11.3 °F 25.0 °F 92% 30.08 in 0.5 mi North 27.6 mph - 0.01 in Fog , Snow Snow
11:37 AM 27.0 °F 10.8 °F 24.1 °F 89% 29.95 in 0.5 mi North 29.9 mph - 0.00 in Fog , Snow Snow
11:56 AM 27.0 °F 10.5 °F 25.0 °F 92% 30.06 in 0.5 mi North 31.1 mph - 0.01 in Fog , Snow Snow
12:52 PM 28.4 °F 12.7 °F 24.8 °F 86% 29.94 in 0.8 mi North 29.9 mph - 0.00 in Snow Light Snow
12:56 PM 28.0 °F 12.5 °F 25.0 °F 88% 30.05 in 1.0 mi North 28.8 mph - 0.00 in Snow Light Snow
1:04 PM 28.0 °F 12.8 °F 25.0 °F 88% 29.94 in 1.2 mi North 27.6 mph - 0.00 in Snow Light Snow
1:22 PM 28.0 °F 12.5 °F 25.0 °F 88% 29.95 in 2.5 mi North 28.8 mph - 0.00 in Snow Light Snow
1:42 PM 28.0 °F 12.8 °F 25.0 °F 88% 29.94 in 1.2 mi North 27.6 mph - 0.00 in Snow Light Snow
1:54 PM 28.4 °F 13.0 °F 24.8 °F 86% 29.94 in 0.5 mi North 28.8 mph - 0.01 in Fog , Snow Snow
1:56 PM 28.0 °F 13.0 °F 25.0 °F 88% 30.06 in 0.5 mi North 26.5 mph - 0.01 in Fog , Snow Snow
2:11 PM 28.0 °F 12.8 °F 25.0 °F 88% 29.94 in 0.8 mi North 27.6 mph - 0.00 in Snow Light Snow
2:42 PM 28.0 °F 13.0 °F 25.0 °F 88% 29.93 in 1.0 mi North 26.5 mph 34.5 mph 0.00 in Snow Light Snow
2:56 PM 28.0 °F 13.3 °F 26.1 °F 92% 30.04 in 1.2 mi North 25.3 mph - 0.00 in Snow Light Snow
3:14 PM 28.9 °F 14.8 °F 26.1 °F 89% 29.93 in 0.5 mi North 24.2 mph - 0.00 in Fog , Snow Snow
3:22 PM 28.9 °F 14.0 °F 26.1 °F 89% 29.93 in 0.5 mi North 27.6 mph - 0.00 in Fog , Snow Snow
3:35 PM 28.9 °F 14.3 °F 26.1 °F 89% 29.92 in 0.5 mi North 26.5 mph - 0.00 in Fog , Snow Snow
3:56 PM 28.9 °F 14.5 °F 26.1 °F 89% 30.04 in 0.5 mi North 25.3 mph - 0.01 in Fog , Snow Snow
4:56 PM 28.9 °F 15.4 °F 26.1 °F 89% 30.06 in 0.5 mi North 21.9 mph - 0.00 in Fog , Snow Snow
5:08 PM 28.9 °F 15.8 °F 26.1 °F 89% 29.95 in 0.8 mi North 20.7 mph - 0.00 in Snow Light Snow
5:23 PM 28.0 °F 13.3 °F 26.1 °F 92% 29.95 in 0.8 mi North 25.3 mph - 0.00 in Snow Light Snow
5:45 PM 28.0 °F 14.3 °F 26.1 °F 92% 29.96 in 0.2 mi NNE 21.9 mph - 0.01 in Fog , Snow Heavy Snow
5:48 PM 28.0 °F 13.6 °F 26.1 °F 92% 29.96 in 0.5 mi NNE 24.2 mph - 0.01 in Fog , Snow Snow
5:56 PM 28.0 °F 13.3 °F 25.0 °F 88% 30.08 in 0.5 mi NNE 25.3 mph - 0.01 in Fog , Snow Snow
6:12 PM 28.0 °F 12.8 °F 25.0 °F 88% 29.97 in 0.2 mi NNE 27.6 mph - 0.00 in Fog , Snow Heavy Snow
6:34 PM 28.0 °F 13.9 °F 25.0 °F 88% 29.97 in 0.5 mi NNE 23.0 mph - 0.00 in Fog , Snow Snow
6:56 PM 28.0 °F 13.3 °F 25.0 °F 88% 30.09 in 0.5 mi NNE 25.3 mph - 0.00 in Fog , Snow Snow
7:04 PM 28.0 °F 13.3 °F 25.0 °F 88% 29.98 in 0.8 mi NNE 25.3 mph - 0.00 in Snow Light Snow
7:09 PM 27.0 °F 12.8 °F 25.0 °F 92% 29.98 in 0.8 mi NNE 21.9 mph - 0.00 in Snow Light Snow
7:17 PM 27.0 °F 12.5 °F 25.0 °F 92% 29.98 in 1.2 mi NNE 23.0 mph - 0.00 in Snow Light Snow
7:29 PM 27.0 °F 12.2 °F 25.0 °F 92% 29.98 in 2.5 mi NNE 24.2 mph - 0.00 in Snow Light Snow
7:56 PM 27.0 °F 12.2 °F 25.0 °F 92% 30.11 in 1.5 mi NNE 24.2 mph - 0.00 in Snow Light Snow
8:44 PM 27.0 °F 12.8 °F 24.1 °F 89% 30.01 in 1.5 mi NNE 21.9 mph - 0.00 in Snow Light Snow
8:56 PM 27.0 °F 12.8 °F 24.1 °F 89% 30.13 in 1.8 mi NNE 21.9 mph - 0.00 in Snow Light Snow
9:05 PM 27.0 °F 12.5 °F 24.1 °F 89% 30.02 in 2.0 mi NNE 23.0 mph - 0.00 in Snow Light Snow
9:53 PM 26.6 °F 12.0 °F 24.8 °F 93% 30.01 in 3.0 mi North 23.0 mph - 0.00 in Snow Light Snow
9:56 PM 27.0 °F 13.2 °F 24.1 °F 89% 30.13 in 3.0 mi North 20.7 mph - 0.00 in Snow Light Snow
10:17 PM 27.0 °F 13.2 °F 24.1 °F 89% 30.01 in 3.0 mi North 20.7 mph - 0.00 in Snow Light Snow
10:26 PM 27.0 °F 13.2 °F 24.1 °F 89% 30.01 in 2.5 mi North 20.7 mph - 0.00 in Snow Light Snow
10:38 PM 27.0 °F 13.2 °F 24.1 °F 89% 30.01 in 1.8 mi North 20.7 mph - 0.00 in Snow Light Snow
10:56 PM 26.1 °F 12.3 °F 24.1 °F 92% 30.13 in 1.5 mi North 19.6 mph - 0.00 in Snow Light Snow
11:12 PM 26.1 °F 12.7 °F 24.1 °F 92% 30.02 in 2.0 mi North 18.4 mph - 0.00 in Snow Light Snow
11:23 PM 26.1 °F 12.3 °F 24.1 °F 92% 30.02 in 2.0 mi North 19.6 mph - 0.00 in Snow Light Snow
11:35 PM 26.1 °F 12.3 °F 24.1 °F 92% 30.02 in 1.5 mi North 19.6 mph - 0.00 in Snow Light Snow
11:52 PM 26.6 °F 13.1 °F 23.0 °F 86% 30.02 in 2.5 mi North 19.6 mph - 0.00 in Snow Light Snow
11:56 PM 26.1 °F 11.6 °F 23.0 °F 88% 30.13 in 2.5 mi North 21.9 mph - 0.00 in Snow Light Snow